Regional Weather Roundup
Issued by NWS Kansas City/Pleasant Hill, MO

Home | Current Version | Previous Version | Graphics & Text | Print | Product List | Glossary Off
Versions: 1 2 3 4 5 6 7 8 9 10 11 12 13 14 15 16 17 18 19 20 21 22 23 24 25 26 27 28 29 30 31 32 33 34 35 36 37 38 39 40 41 42 43 44 45 46 47 48 49 50

015
ASUS43 KEAX 231510
RWREAX

WEATHER ROUNDUP FOR EASTERN KANSAS AND NORTHWEST MISSOURI
NATIONAL WEATHER SERVICE KANSAS CITY/PLEASANT HILL MO
1000 AM CDT SUN JUL 23 2017

KSZ040-057-103>105-MOZ028-029-037-043-231600-
...KANSAS CITY METROPOLITAN AREA...

CITY           SKY/WX    TMP DP  RH WIND       PRES   REMARKS
K.C. INTL      MOSUNNY   81  71  71 NW7       29.94S
K.C. DOWNTOWN  MOSUNNY   81  71  71 SW6       29.92S
LEES SUMMIT    CLOUDY    78  70  76 SW10      29.94S
OLATHE - IXD   CLOUDY    78  69  73 W8        29.94F
OLATHE - OJC   PTSUNNY   77  69  76 W9        29.94F
LAWRENCE       MOSUNNY   79  72  79 W3        29.93F

$$

MOZ001>008-011>017-020>025-030>033-038>040-044>046-053-054-231600-
...NORTHERN AND CENTRAL MISSOURI...

CITY           SKY/WX    TMP DP  RH WIND       PRES   REMARKS
ST. JOSEPH     SUNNY     83  73  72 NW8       29.94S
MOSBY          SUNNY     81  70  69 W6        29.93S
WHITEMAN AFB   PTSUNNY   82  71  69 W7        29.91F
CLINTON        CLOUDY    75  72  88 SW7       29.95S
SEDALIA        PTSUNNY   80  72  76 W6        29.94F
WARSAW         NOT AVBL
CHILLICOTHE      N/A     83  76  79 VRB3      29.93S HX  91
KIRKSVILLE     SUNNY     83  74  74 NW7       29.92S

$$

MOZ041-047>049-056>058-063>065-088>090-097-231600-
...EASTERN AND SOUTHERN MISSOURI...

CITY           SKY/WX    TMP DP  RH WIND       PRES   REMARKS
ST. LOUIS INTL CLOUDY    79  67  66 SW10      29.92R
SPIRIT OF STL  CLOUDY    75  70  84 SW8       29.92R
COLUMBIA       CLOUDY    75  69  81 W10       29.95R
JEFFERSON CITY CLOUDY    78  72  81 W5        29.93S
ROLLA          CLOUDY    75  69  81 SW8       29.96S
OSAGE BEACH    PTSUNNY   79  67  66 SW3       29.95F
SPRINGFIELD    PTSUNNY   81  67  62 CALM      29.97F
BRANSON        PTSUNNY   84  68  58 SE6       29.98F
JOPLIN         CLOUDY    76  73  91 CALM      29.95F
WEST PLAINS    MOSUNNY   84  65  52 VRB5      29.97S

$$

IAZ060-094-KSZ022-034>040-054-083-096-NEZ052-066-093-231600-
...KANSAS...SOUTHEAST NEBRASKA AND IOWA...

CITY           SKY/WX    TMP DP  RH WIND       PRES   REMARKS
TOPEKA         SUNNY     79  73  82 W7        29.94S
MANHATTAN      SUNNY     82  68  62 VRB3      29.96F
EMPORIA        MOSUNNY   79  68  69 N10       29.96S
CHANUTE        CLOUDY    73  70  90 VRB5      29.96R
WICHITA        MOSUNNY   79  72  79 N8        29.97S
OMAHA          MOSUNNY   77  72  84 W3        29.97F
LINCOLN        MOSUNNY   79  71  76 W5        29.99S
FALLS CITY     CLOUDY    80  74  81 NW8       29.95S
LAMONI         MOSUNNY   83  77  82 W12       29.93S HX  92
DES MOINES     MOSUNNY   83  70  64 NW12      29.90F

$$





USA.gov is the U.S. government's official web portal to all federal, state and local government web resources and services.